Location: Claremont
(35.7250°N, 81.1500°W)
Time: 08:16:30
(UTC-04:00)

Daily predictions for brighter satellites

Satellite Brightness Start Highest point End
(mag) Time Altitude Azimuth Time Altitude Azimuth Time Altitude Azimuth
Cosmos 494 Rocket 4.0 20:52:55 10° S 20:57:57 63° ESE 21:03:00 10° NNE
Delta 168 4.4 20:57:44 10° SSW 20:59:44 15° SSE 21:01:59 10° SE
Meteor 2-4 Rocket 4.0 20:57:26 10° S 21:03:07 57° E 21:08:55 10° NNE
Cosmos 2333 Rocket 4.2 20:58:52 10° SW 21:03:56 34° WNW 21:09:03 10° N
FENGYUN 3A 3.7 21:01:32 10° SSE 21:06:52 74° ENE 21:12:16 10° N
Cosmos 1025 Rocket 3.4 21:02:57 10° SSW 21:07:19 70° W 21:11:41 10° N
Cosmos 2297 3.8 21:01:43 10° NNW 21:07:26 71° ENE 21:13:08 10° SSE
Cosmos 2228 4.0 21:03:42 10° NNE 21:07:35 30° ENE 21:11:27 10° SE
Meteor 1-19 Rocket 4.3 21:03:51 10° S 21:09:29 90° W 21:15:06 10° N
Resurs 01 Rocket 4.2 21:10:41 10° SW 21:13:58 20° W 21:17:18 10° NW
H-2A R/B 2.9 21:13:35 10° S 21:17:31 84° WSW 21:21:30 10° NNW
Okean 2 3.4 21:14:42 10° S 21:18:51 72° E 21:23:02 10° NNE
Cosmos 1892 Rocket 3.8 21:15:17 10° S 21:19:43 75° W 21:24:11 10° N
GEOS 3 Rocket 3.7 21:14:41 10° SE 21:19:57 77° NE 21:25:11 10° NNW
Aureole 2 Rocket 2.6 21:20:25 10° SSW 21:24:26 88° ESE 21:28:06 10° NNE
Cosmos 1331 Rocket 4.0 21:22:26 10° NNW 21:27:40 85° WSW 21:32:48 10° SSE
SeaSat 1 3.8 21:24:32 11° ESE 21:28:15 26° NE 21:32:19 10° N
OAO 3 Copernicus 4.4 21:24:19 10° W 21:29:20 69° SSW 21:33:34 14° ESE
USA 186 3.3 21:33:41 10° SSW 21:36:15 29° W 21:38:42 10° NW
CZ-2C R/B 0.9 21:36:18 14° S 21:38:09 57° WSW 21:40:26 10° NNW
Cosmos 1302 Rocket 4.0 21:33:23 10° NNW 21:38:37 70° ENE 21:42:58 15° SSE
CZ-4B R/B 4.4 21:34:38 10° NE 21:39:02 28° E 21:42:11 16° SSE
DEBRIS 3.3 21:39:27 10° NW 21:44:22 43° NNE 21:45:47 21° E
Cosmos 2278 Rocket 4.2 21:41:27 10° NW 21:46:01 25° WSW 21:50:34 10° SSW
Cosmos 1461 3.1 21:43:14 10° NNW 21:47:26 56° ENE 21:49:44 24° SE
Cosmos 1513 Rocket 4.4 21:42:14 10° N 21:48:32 80° E 21:54:25 11° S
ATLAS 3B R/B 3.5 21:41:51 10° S 21:48:38 35° ESE 21:55:23 10° NE
SJ-11-01 4.3 21:44:23 11° S 21:48:56 80° WSW 21:53:37 10° NNW
Tsikada Rocket 4.0 21:44:14 10° S 21:50:35 68° E 21:56:56 10° NNE
ARGOS 4.5 21:51:45 17° ESE 21:54:19 24° ENE 21:58:36 10° NNE
Cosmos 2369 Rocket 3.6 21:54:27 10° N 21:58:59 24° ENE 22:01:39 17° E
Cosmos 2058 Rocket 4.4 21:57:43 10° NNW 22:01:44 37° W 22:05:44 10° SSW
ERS-1 Rocket 3.6 21:57:17 10° S 22:02:10 53° W 22:07:04 10° NNW
Cosmos 1602 Rocket 3.8 21:57:57 10° SSW 22:02:24 72° W 22:06:53 10° N
Cosmos 1666 3.4 21:59:03 10° NNW 22:02:52 55° W 22:05:58 15° S
APEX 4.1 21:58:58 10° NNW 22:03:17 65° WSW 22:07:16 19° S
SL-16 R/B 4.4 21:59:09 10° WSW 22:03:54 27° WNW 22:08:39 10° N
Abrixas rocket 2.4 22:01:51 10° WNW 22:05:14 64° SW 22:06:15 40° SSE
Atlas Centaur 2 3.1 21:58:46 10° WSW 22:06:00 55° S 22:12:42 16° E
USA 234 4.1 22:01:10 15° E 22:06:06 41° NE 22:12:10 10° NNW
Cosmos 1825 Rocket 4.2 22:05:59 30° SE 22:07:15 36° E 22:11:19 10° NNE
Envisat 2.9 22:05:32 21° SSE 22:08:58 89° ENE 22:14:04 10° NNW
MetOp-B 4.3 22:06:59 26° SE 22:09:54 59° ENE 22:15:10 10° N
Cosmos 407 Rocket 4.3 22:11:19 29° ESE 22:12:24 32° E 22:17:01 10° NE
ISS -2.3 22:11:51 10° WSW 22:15:01 48° NW 22:18:12 10° NE
CZ-3C R/B 4.1 22:14:56 10° SW 22:15:57 10° SSW 22:16:41 10° SSW
Cosmos 1812 Rocket 3.5 22:11:46 10° N 22:16:11 84° E 22:18:12 32° S
Cosmos 1939 Rocket 3.8 22:16:39 19° SSW 22:19:23 47° W 22:23:25 10° NNW
CZ-4 R/B 4.1 22:17:43 10° NNE 22:22:36 52° E 22:24:19 35° SSE
H-2A R/B 3.7 22:22:24 11° SSW 22:25:49 29° W 22:29:36 10° NW
SPOT 5 2.9 22:24:58 29° S 22:27:07 65° WSW 22:31:27 10° NNW
COSMOS 2455 3.3 22:23:38 10° SW 22:29:34 64° WNW 22:35:34 10° NNE
Cosmos 1515 3.8 22:28:51 37° SSW 22:30:17 77° W 22:34:10 10° N
USA 245 4.3 22:28:23 34° SSE 22:31:06 70° ENE 22:36:25 10° N
Cosmos 1634 Rocket 4.0 22:26:10 10° N 22:32:16 60° E 22:34:40 37° SE
Cosmos 1066 Rocket 4.2 22:30:02 30° S 22:32:54 71° E 22:38:39 10° NNE
USA 81 4.0 22:30:44 10° N 22:36:01 70° E 22:37:42 43° SSE
BREEZE-M DEB (TANK) 3.9 22:34:18 10° WNW 22:35:26 21° W 22:35:26 21° W
YAOGAN 6 2.5 22:39:45 73° S 22:40:04 84° WSW 22:43:50 10° NNW
Terra 2.9 22:43:54 28° ENE 22:44:13 28° ENE 22:48:16 10° NNE
Cosmos 489 Rocket 4.4 22:42:05 32° S 22:45:06 67° ESE 22:51:25 10° NNE
Cosmos 1346 Rocket 2.6 22:48:51 81° ENE 22:48:51 81° ENE 22:52:40 10° N
Cosmos 1992 Rocket 3.9 22:43:59 10° NNW 22:49:14 88° WSW 22:50:30 53° SSE
Cosmos 1953 Rocket 3.5 22:52:36 67° SSW 22:53:12 87° W 22:57:38 10° N
Cosmos 2279 Rocket 4.2 22:49:32 10° N 22:55:39 53° E 22:56:57 45° ESE
Cosmos 1943 3.5 22:50:36 10° SSW 22:56:09 64° WNW 23:01:48 10° NNE
H-2A R/B 2.4 22:57:40 42° E 22:57:59 43° ENE 23:02:44 10° N
Cosmos 1842 4.4 23:04:02 34° NE 23:04:02 34° NE 23:06:31 10° NNE
Lacrosse 4 Rocket 1.5 23:03:02 63° W 23:03:20 66° WNW 23:07:23 10° NNE
Cosmos 1932 4.4 23:03:15 53° SE 23:03:43 55° ESE 23:09:45 10° NE
Cosmos 1943 Rocket 3.2 22:59:08 10° N 23:04:03 31° ENE 23:04:49 30° ENE
Meteor 1-21 4.1 23:03:34 55° SSE 23:04:51 78° E 23:10:41 10° NNE
Geosat 3.9 22:59:58 10° NNE 23:05:01 85° WNW 23:06:35 45° SSW
SeaSat 1 3.5 23:04:20 31° SW 23:05:35 37° WSW 23:10:09 10° NW
Cosmos 1190 Rocket 4.5 23:03:10 24° SW 23:06:18 59° WNW 23:11:33 10° N
SPOT 1/Viking Rocket 4.0 23:05:21 41° SSW 23:06:44 54° W 23:11:47 10° NNW
SL-24 R/B 4.4 23:03:32 10° N 23:08:30 67° E 23:08:44 66° ESE
Cosmos 1900 4.4 23:07:02 41° SW 23:08:51 79° WNW 23:14:01 10° NNE
Cosmos-2242 3.9 23:08:14 10° N 23:11:38 39° NE 23:11:38 39° NE
Cosmos 2180 Rocket 4.5 23:09:30 10° N 23:15:46 65° E 23:16:42 58° SE
DELTA 2 DEB (DPAF) 4.5 23:22:59 59° W 23:22:59 59° W 23:27:18 10° NNW
Cosmos 676 Rocket 4.2 23:21:47 54° SW 23:22:53 71° WNW 23:28:13 10° NNE
DMSP B5D2-2 3.9 23:20:52 10° NNE 23:26:10 84° ESE 23:26:13 83° ESE
Cosmos 1758 Rocket 4.5 23:27:03 41° W 23:27:24 42° W 23:31:34 10° N
Cosmos 1766 4.1 23:23:26 10° NNW 23:26:30 49° NNW 23:26:30 49° NNW
Cosmos 1140 Rocket 3.9 23:28:55 50° ENE 23:28:55 50° ENE 23:33:06 10° NNE
CARTOSAT-1 4.0 23:31:25 59° NNW 23:31:25 59° NNW 23:34:58 10° NNW
ARGOS 4.1 23:33:16 35° WSW 23:34:17 38° W 23:39:20 10° NNW
ATLAS 3B R/B 3.8 23:31:49 10° SW 23:39:12 48° NW 23:46:29 10° NNE
Cosmos 2369 Rocket 2.9 23:37:50 10° NW 23:43:09 42° WSW 23:43:27 42° WSW
USA 234 3.4 23:48:30 53° SW 23:48:55 54° SW 23:55:20 10° NW
